Regional Weather Roundup
Issued by NWS

Home | Current Version | Previous Version | Text Only | Print | Product List | Glossary Off
Versions: 1 2 3 4 5 6 7 8 9 10 11 12 13 14 15 16 17 18 19 20 21 22 23 24 25 26 27 28 29 30 31 32 33 34 35 36 37 38 39 40 41 42 43 44 45 46 47 48 49 50

000
ASUS43 KDMX 241807
RWRIA

WEATHER ROUNDUP FOR IOWA
NATIONAL WEATHER SERVICE DES MOINES IA
100 PM CDT SUN MAY 24 2015

NOTE: "FAIR" INDICATES FEW OR NO CLOUDS BELOW 12,000 FEET WITH NO
SIGNIFICANT WEATHER AND/OR OBSTRUCTIONS TO VISIBILITY.

* - THESE STATIONS ARE NOT NWS STATIONS...THUS NOT UNDER NWS
QUALITY CONTROL.  THEY ALSO DO NOT REPORT WEATHER SUCH
AS PRECIPITATION OR FOG.

IAZ001>003-012>014-020>022-031>034-043>046-241900-
   NORTHWEST IOWA

CITY           SKY/WX    TMP DP  RH WIND       PRES   REMARKS
CARROLL *      CLOUDY    64  63  94 S12       29.84F
CHEROKEE *     CLOUDY    62  62 100 SE6       29.85F FOG
DENISON *      CLOUDY    63  63 100 S7        29.82S
LE MARS *      CLOUDY    63  59  88 E8        29.86F
ORANGE CITY *  CLOUDY    61  57  88 E5        29.86F
SHELDON *      CLOUDY    61  59  94 E15G21    29.86F
SIOUX CITY     CLOUDY    63  58  83 E8        29.83F
6HR MIN TEMP:  60; 6HR MAX TEMP:  63; 6HR PCP:  0.10;

SPENCER        LGT RAIN  61  59  93 E15       29.87F FOG
6HR MIN TEMP:  59; 6HR MAX TEMP:  61; 6HR PCP:  0.14;

STORM LAKE *   CLOUDY    61  61 100 SE12      29.85F FOG
$$

IAZ055>058-069>071-079>083-090>094-241900-
   SOUTHWEST IOWA

CITY           SKY/WX    TMP DP  RH WIND       PRES   REMARKS
ATLANTIC *     CLOUDY    64  64 100 S12       29.84S FOG
AUDUBON *      CLOUDY    63  61  94 S8        29.85S FOG
CLARINDA *     CLOUDY    66  64  94 S10       29.87S
COUNCIL BLFS * CLOUDY    64  64 100 SW6       29.83F
CRESTON *      CLOUDY    64  64 100 S12       29.87S
HARLAN  *      CLOUDY    63  63 100 VRB3G13   29.87S
LAMONI         CLOUDY    70  64  81 S12       29.87F
6HR MIN TEMP:  63; 6HR MAX TEMP:  70; 6HR PCP:  0.04;

RED OAK *      CLOUDY    66  64  94 S9        29.84S
SHENANDOAH *   CLOUDY    68  64  88 SW12      29.85S
$$

IAZ047>049-059>061-072>074-084-241900-
   CENTRAL IOWA

CITY           SKY/WX    TMP DP  RH WIND       PRES   REMARKS
AMES           CLOUDY    62  60  93 SE12      29.87F FOG
6HR MIN TEMP:  59; 6HR MAX TEMP:  62; 6HR PCP:  0.38;

ANKENY *       CLOUDY    64  63  94 SE13      29.86F
CHARITON *     CLOUDY    66  64  94 S15G21    29.88F
DES MOINES     CLOUDY    65  62  90 S12       29.87F
6HR MIN TEMP:  61; 6HR MAX TEMP:  65; 6HR PCP:  0.12;

GRINNELL*      CLOUDY    64  61  88 SE13      29.91S
KNOXVILLE *    CLOUDY    66  63  88 S10       29.87F
MARSHALLTOWN   CLOUDY    62  60  93 SE14G24   29.89F
6HR MIN TEMP:  58; 6HR MAX TEMP:  62; 6HR PCP:  0.50;

PELLA *        CLOUDY    65  65 100 SE6       29.90S
PERRY *        CLOUDY    63  62  94 SE13      29.85F
$$

IAZ004>006-015-016-023>025-035-036-241900-
   NORTH CENTRAL IOWA

CITY           SKY/WX    TMP DP  RH WIND       PRES   REMARKS
ALGONA *       CLOUDY    59  59 100 SE13      29.89F FOG
CLARION *      FOG       61  61 100 SE17      29.89S VSB 1
ESTHERVILLE    LGT RAIN  58  58 100 E14       29.89F FOG
6HR MIN TEMP:  58; 6HR MAX TEMP:  59; 6HR PCP:  0.23;

FORT DODGE *   CLOUDY    61  57  88 SE12G17   29.87F
MASON CITY     RAIN      59  57  93 SE17G29   29.92F FOG
6HR MIN TEMP:  59; 6HR MAX TEMP:  60; 6HR PCP:  0.22;

FOREST CITY *  DRIZZLE   57  57 100 E16G22    29.91F
IOWA FALLS *   LGT RAIN  61  59  94 SE16      29.90F
$$

IAZ007>011-017>019-026>030-037>042-050>054-066-241900-
   NORTHEAST IOWA

CITY           SKY/WX    TMP DP  RH WIND       PRES   REMARKS
CEDAR RAPIDS   LGT RAIN  61  61 100 E12       29.94F FOG
6HR MIN TEMP:  58; 6HR MAX TEMP:  61; 6HR PCP:  0.61;

CHARLES CITY * LGT RAIN  59  59 100 E20       29.95S
CLINTON *      CLOUDY    63  59  88 E14       30.02F
DECORAH *      CLOUDY    57  57 100 E15G21    29.98F
DUBUQUE        LGT RAIN  60  57  89 E13       30.00F
6HR MIN TEMP:  58; 6HR MAX TEMP:  60; 6HR PCP:  0.44;

MONTICELLO *   CLOUDY    61  61 100 E14G20    29.97F
OELWEIN *      CLOUDY    59  59 100 E21G26    29.95F FOG
WATERLOO       CLOUDY    60  58  92 SE17      29.93F
6HR MIN TEMP:  58; 6HR MAX TEMP:  60; 6HR PCP:  0.49;

$$

IAZ064-065-067-068-078-241900-
   EAST CENTRAL IOWA

CITY           SKY/WX    TMP DP  RH WIND       PRES   REMARKS
DAVENPORT      LGT RAIN  65  61  87 E14       29.99F
6HR MIN TEMP:  59; 6HR MAX TEMP:  65; 6HR PCP:  0.30;

IOWA CITY      LGT RAIN  64  61  90 E7        29.96F
6HR MIN TEMP:  59; 6HR MAX TEMP:  64; 6HR PCP:  0.60;

MT. PLEASANT * CLOUDY    71  65  82 S13G18    29.94F
MUSCATINE *    CLOUDY    70  63  78 SE7G15    29.94F
QUAD CITIES    LGT RAIN  67  63  87 E8        29.97F
6HR MIN TEMP:  59; 6HR MAX TEMP:  67; 6HR PCP:  0.29;

$$

IAZ062-063-075>077-085>089-095>099-241900-
   SOUTHEAST IOWA

CITY           SKY/WX    TMP DP  RH WIND       PRES   REMARKS
BURLINGTON     CLOUDY    73  67  81 S7        29.94F
6HR MIN TEMP:  60; 6HR MAX TEMP:  73; 6HR PCP:  0.09;

FAIRFIELD *    CLOUDY    70  63  78 S13       29.93S
FORT MADISON * MOSUNNY   73  68  83 SE8       29.94F
KEOKUK *       MOSUNNY   75  66  73 S13       29.93S
OSKALOOSA *    CLOUDY    69  64  83 S13       29.91F
CENTERVILLE *  PTSUNNY   68  68 100 S16       29.92S
OTTUMWA        LGT RAIN  67  64  90 S17       29.91F FOG
6HR MIN TEMP:  60; 6HR MAX TEMP:  70; 6HR PCP:  0.12;

WASHINGTON *   CLOUDY    68  64  88 S9        29.95F
$$

ABBREVIATIONS USED IN REMARKS
   TC - TEMPERATURES IN CELSIUS
  WCI - WIND CHILL INDEX
   HX - HEAT INDEX
  VSB - VISIBILITY
$$




USA.gov is the U.S. government's official web portal to all federal, state and local government web resources and services.